EHI
0 0 0 0 0 0 0 0 0 0 0 0 0 0 0 0 0 0 0 0 0 0 0 0 0 0 1 6 12 12 6 3 2 1 0 0 0 0 0 0 0 0 0 0 0 0 0 0 0
0 0 0 0 0 0 0 0 0 0 0 0 0 0 0 0 0 0 0 0 0 0 0 0 0 0 1 4 8 7 3 1 1 0 0 0 0 0 0 0 0 0 0 0 0 0 0 0 0
0 0 0 0 0 0 0 0 0 0 0 0 0 0 0 0 0 0 0 0 0 0 0 0 0 0 1 2 3 2 0 0 0 0 0 0 0 0 0 0 0 0 0 0 0 0 0 0 0
0 0 0 0 0 0 0 0 0 0 0 0 0 0 0 0 0 0 0 0 0 0 0 0 0 0 0 1 1 0 0 0 0 0 0 0 0 0 0 0 0 0 0 0 0 0 0 0 0
0 0 0 0 0 0 0 0 0 0 0 0 0 0 0 0 0 0 0 0 0 0 0 0 0 0 0 0 0 0 0 0 0 0 0 0 0 0 0 0 0 0 0 0 0 0 0 0 0
0 0 0 0 0 0 0 0 0 0 0 0 0 0 0 0 0 0 0 0 0 0 0 0 0 0 0 0 0 0 0 0 0 0 0 0 0 0 0 0 0 0 0 0 0 0 0 0 0
0 0 0 0 0 0 0 0 0 0 0 0 0 0 0 0 0 0 0 0 0 0 0 0 0 0 0 0 0 0 0 0 0 0 0 0 0 0 0 0 0 0 0 0 0 0 0 0 0
0 0 0 0 0 0 0 0 0 0 0 0 0 0 0 0 1 2 1 1 0 0 0 0 0 0 0 0 0 0 0 0 0 0 0 0 0 0 0 0 0 0 0 0 0 0 0 0 0
0 0 0 0 0 0 0 0 0 0 0 0 0 0 0 2 5 6 4 2 0 0 0 0 0 0 0 0 0 0 0 0 0 0 0 0 0 0 0 0 0 0 0 0 0 0 0 0 0
0 0 0 0 0 0 0 0 0 0 0 0 0 0 1 5 10 9 5 2 0 0 0 0 0 0 0 0 0 0 0 0 0 0 0 0 0 0 0 0 0 0 0 0 0 0 0 0 0
0 0 0 0 0 0 0 0 0 0 0 0 0 0 2 9 14 12 5 1 0 0 0 0 0 0 0 0 0 0 0 0 0 0 0 0 0 0 0 0 0 0 0 0 0 0 0 0 0
0 0 0 0 0 0 0 0 0 0 0 0 0 0 2 9 14 11 5 1 0 1 0 0 0 0 0 0 0 0 0 0 0 0 0 0 0 0 0 0 0 0 0 0 0 0 0 0 0
0 0 0 0 0 0 0 0 0 0 0 0 0 0 1 5 7 5 2 1 0 1 1 1 0 0 0 0 0 0 0 0 0 0 0 0 0 0 0 0 0 0 0 0 0 0 0 0 0
0 0 0 0 0 0 0 0 0 0 0 0 0 0 0 1 1 1 0 0 0 1 4 4 2 0 0 0 0 0 0 0 0 0 0 0 0 0 0 0 0 0 0 0 0 0 0 0 0
0 0 0 0 0 0 0 0 0 0 0 0 0 0 0 0 0 0 0 0 0 2 6 6 4 2 0 0 0 0 0 0 0 0 0 0 0 0 0 0 0 0 0 0 0 0 0 0 0
0 0 0 0 0 0 0 0 0 0 0 0 0 0 0 0 0 0 0 0 0 3 7 9 9 6 2 0 0 0 0 0 0 0 0 0 0 0 0 0 0 0 0 0 0 0 0 0 0
0 0 0 0 0 0 0 0 0 0 0 0 0 0 0 0 0 0 0 0 0 2 6 11 13 11 7 3 1 0 0 0 0 0 0 0 0 0 0 0 0 0 0 0 0 0 0 0 0
0 0 0 0 0 0 0 0 0 0 0 0 0 0 0 0 0 0 0 0 0 0 3 9 14 14 13 11 7 3 1 0 0 0 0 0 0 0 0 0 0 0 0 0 0 0 0 0 0
0 0 0 0 0 0 0 0 0 0 0 0 0 0 0 0 0 0 0 0 0 0 1 5 10 13 17 20 19 13 6 3 2 1 0 0 0 0 0 0 0 0 0 0 0 0 0 0 0
0 0 0 0 0 0 0 0 0 0 0 0 0 0 0 0 0 0 0 0 0 0 0 1 5 9 14 22 25 20 12 8 5 2 0 0 0 0 0 0 0 0 0 0 0 0 0 0 0
0 0 0 0 0 0 0 0 0 0 0 0 0 0 0 0 0 0 0 0 0 0 0 0 1 4 8 15 21 19 14 10 6 3 2 1 1 0 0 0 0 0 0 0 0 0 0 0 0
0 0 0 0 0 0 0 0 0 0 0 0 0 0 0 0 0 0 0 0 0 0 0 0 0 1 3 7 11 15 14 10 6 5 5 4 2 1 0 0 0 0 0 0 0 0 0 0 0
0 0 0 0 0 0 0 0 0 0 0 0 0 0 0 0 0 0 0 0 0 0 0 0 0 0 1 3 6 9 11 9 5 4 5 5 3 1 0 0 0 0 0 0 0 0 0 0 0
0 0 0 0 0 0 0 0 0 0 0 0 0 0 0 0 0 0 0 0 0 0 0 0 0 0 1 2 3 4 5 5 3 2 2 3 2 1 0 0 0 0 0 0 0 0 0 0 0
0 0 0 0 0 0 0 0 0 0 0 0 0 0 0 0 0 0 0 0 0 0 0 0 0 0 0 1 2 1 1 2 2 1 1 2 1 0 0 0 0 0 0 0 0 0 0 0 0
0 0 0 0 0 0 0 0 0 0 0 0 0 0 0 0 0 0 0 0 0 0 0 0 0 0 0 0 0 0 0 0 0 0 0 1 0 0 0 0 0 0 0 0 0 0 0 0 0
0 0 0 0 0 0 0 0 0 0 0 0 0 0 0 0 0 0 0 0 0 0 0 0 0 0 0 0 0 0 0 0 0 0 0 0 0 0 0 0 0 0 0 0 0 0 0 0 0
0 0 0 0 0 0 0 0 0 0 0 0 0 0 0 0 0 0 0 0 0 0 0 0 0 0 0 0 0 0 0 0 0 0 0 0 0 0 0 0 0 0 0 0 0 0 0 0 0
0 0 0 0 0 0 0 0 0 0 0 0 0 0 0 0 0 0 0 0 0 0 0 0 0 0 0 0 0 0 0 0 0 0 0 0 0 0 0 0 0 0 0 0 0 0 0 0 0
0 0 0 0 0 0 0 0 0 0 0 0 0 0 0 0 0 0 0 0 0 0 0 0 0 0 0 0 0 0 0 0 0 0 0 0 0 0 0 0 0 0 0 0 0 0 0 0 0
Wind_Speed
3 2 3 4 6 4 4 6 4 4 4 3 2 3 5 6 6 4 1 6 10 11 10 13 15 15 15 15 15 16 15 15 14 13 12 11 10 9 8 7 7 7 8 9 11 12 12 12 12
1 2 5 5 5 3 7 6 6 7 4 5 3 1 1 3 1 4 5 6 11 11 9 10 14 15 15 16 16 16 15 14 13 13 12 11 10 9 8 7 8 8 10 11 12 12 12 12 11
2 3 4 5 5 8 8 6 8 4 5 3 3 2 2 2 2 6 5 9 10 9 8 10 15 15 15 16 16 15 15 14 13 12 12 11 10 9 9 9 9 10 12 12 11 12 11 11 10
3 4 5 4 8 9 7 3 3 4 5 3 2 4 3 2 3 5 8 11 11 8 7 10 15 15 15 15 15 15 15 14 13 12 11 11 10 10 10 10 11 11 11 11 11 11 10 9 8
4 4 3 3 9 6 5 5 2 3 4 3 3 4 4 4 3 8 11 12 11 8 6 9 14 15 15 15 15 15 15 14 13 13 12 11 11 11 11 10 10 10 10 10 10 9 9 8 8
4 4 5 7 9 5 4 4 2 4 3 3 2 3 3 2 4 10 12 11 9 9 7 8 13 13 14 14 14 14 14 14 14 13 12 12 11 11 11 10 9 9 9 9 9 8 8 7 7
5 5 6 6 6 7 5 5 5 5 6 5 4 3 4 2 6 11 11 10 9 7 6 6 7 9 11 12 12 13 13 13 13 13 12 11 11 11 11 10 9 9 8 8 7 7 7 7 7
4 5 5 5 6 6 3 5 4 7 8 4 6 6 6 5 10 11 10 9 8 6 6 6 6 6 6 7 10 11 11 11 11 11 10 9 9 9 10 8 7 8 8 7 6 6 7 7 7
4 4 6 7 7 4 3 4 3 2 3 2 5 5 3 10 13 12 9 8 9 9 6 6 6 6 6 6 8 9 10 10 10 9 10 8 4 4 5 5 5 6 7 6 6 6 7 8 8
4 5 8 5 5 3 1 2 2 1 1 2 1 2 3 14 16 16 14 14 14 14 11 7 7 7 6 6 5 4 4 5 5 5 6 4 4 3 4 4 5 5 5 5 6 7 7 6 4
6 6 4 4 2 1 0 1 1 0 2 2 1 2 7 13 15 15 15 14 14 13 12 10 8 7 7 5 4 3 3 3 4 6 6 5 4 3 3 2 2 3 4 3 4 5 3 4 3
5 4 4 3 1 1 1 1 2 3 4 1 2 2 7 12 14 14 14 13 12 12 13 11 10 8 7 5 5 4 4 4 4 5 6 5 3 3 3 2 2 2 2 3 3 3 4 4 4
5 2 3 3 3 2 2 3 3 5 6 3 1 2 5 7 8 7 7 8 9 12 13 12 11 10 8 6 5 6 5 5 5 5 6 6 5 4 4 3 2 3 2 3 3 3 4 4 4
6 4 3 3 3 2 4 5 4 7 4 3 2 1 2 4 5 5 6 9 11 12 13 12 13 11 9 8 7 6 6 6 6 6 7 7 5 5 5 4 3 3 3 3 3 4 4 3 3
4 4 3 5 4 3 2 8 8 8 4 5 5 5 4 5 5 7 7 8 11 11 11 13 13 12 11 10 9 7 6 7 7 7 7 8 7 7 6 5 4 4 4 4 4 4 4 4 3
5 4 3 4 4 5 5 12 4 6 5 7 7 6 6 6 7 7 7 7 8 8 10 12 12 13 13 12 10 7 7 8 7 7 7 9 9 8 7 6 5 5 5 4 5 4 4 3 3
4 5 5 3 2 3 7 8 5 3 4 7 8 7 7 7 7 8 7 8 8 9 10 12 13 13 14 13 10 8 7 8 7 7 8 10 11 10 8 7 5 6 5 4 5 3 3 3 3
6 5 4 5 1 1 5 7 9 6 4 7 8 7 7 8 10 8 7 7 7 8 9 10 11 12 12 10 7 6 7 7 7 8 9 10 10 11 9 6 7 7 6 5 5 4 3 3 4
7 6 4 3 2 1 5 8 12 8 6 8 9 9 8 9 8 6 6 6 6 6 8 9 11 11 9 8 10 10 11 10 9 10 11 12 11 12 11 8 8 8 8 8 8 5 4 3 3
6 4 2 1 2 1 4 9 11 8 7 8 9 9 8 7 6 5 5 5 6 6 7 8 10 10 10 10 10 7 8 7 8 7 9 11 12 12 12 12 10 10 7 8 8 6 5 3 3
5 5 4 1 2 3 5 8 6 4 2 3 4 5 5 6 6 5 4 4 4 5 6 7 9 9 10 10 6 4 3 2 4 6 9 11 12 13 13 13 11 11 11 11 10 9 9 5 2
6 4 5 2 2 3 3 5 8 4 5 3 4 4 4 4 4 4 4 3 3 4 4 5 6 7 8 8 8 10 10 11 12 10 10 10 12 13 13 13 12 12 10 10 11 9 6 7 5
4 4 4 3 3 1 1 2 9 3 2 3 4 5 5 4 3 4 4 4 4 3 2 3 4 5 6 7 9 11 12 11 7 6 7 8 8 10 11 12 11 12 10 10 10 9 7 5 6
8 7 6 4 3 2 4 4 8 3 2 2 4 5 6 5 4 4 4 4 4 3 3 2 3 4 4 6 8 10 12 11 8 8 9 8 6 7 10 10 11 10 9 10 10 9 9 6 6
5 6 3 2 1 5 2 3 10 5 4 3 3 4 5 5 6 7 8 8 7 7 6 5 4 5 5 5 7 9 11 11 13 12 11 10 7 7 11 11 10 9 8 9 9 8 8 7 8
4 5 6 5 4 3 2 7 9 5 4 1 0 2 4 6 6 6 6 6 7 8 7 7 7 7 6 6 7 8 9 8 8 10 9 11 9 9 9 9 9 9 9 9 8 7 7 6 7
6 3 3 5 2 2 5 6 8 1 2 2 3 4 6 6 6 6 6 6 7 8 7 7 7 8 8 7 7 7 8 8 8 8 7 6 5 5 8 8 8 9 9 10 9 7 8 8 7
5 7 5 5 4 3 5 5 4 3 1 1 4 6 6 7 7 7 6 7 7 7 7 7 7 8 8 8 6 6 6 6 6 5 6 6 6 7 10 10 10 10 10 10 9 9 8 9 7
4 4 4 4 3 4 3 5 4 5 3 0 4 5 6 6 6 6 6 6 7 7 7 7 8 8 8 7 6 5 4 3 4 5 6 7 8 10 11 11 11 11 11 11 10 9 10 10 7
4 5 6 5 3 3 2 8 3 3 2 1 5 6 6 5 5 4 5 6 6 7 7 7 7 7 7 6 5 3 1 2 4 5 7 8 10 10 11 11 12 12 11 11 11 11 10 9 8
Wind_Direction
25 33 70 60 57 56 240 244 236 264 250 252 249 217 192 177 176 209 125 138 136 143 154 156 154 154 153 151 146 142 141 139 137 134 132 129 126 124 124 127 135 137 130 126 124 118 112 106 104
60 69 62 68 111 200 253 237 228 231 258 310 296 232 253 233 172 129 143 160 144 144 150 151 152 153 153 150 146 145 144 143 141 139 137 135 134 131 126 123 124 124 123 120 115 112 110 107 105
87 54 96 102 158 195 228 229 225 267 291 281 298 293 247 270 169 169 171 154 140 140 142 149 151 154 153 151 149 150 150 148 145 143 141 142 142 138 131 121 115 113 116 116 113 112 110 107 105
95 62 65 130 214 217 208 227 196 316 331 335 330 308 285 338 186 170 146 147 137 133 137 150 151 154 154 154 155 155 155 152 149 148 148 148 146 140 131 121 115 113 115 116 115 113 110 108 103
67 97 122 210 231 237 225 243 251 295 306 335 348 291 281 352 94 129 141 148 143 135 137 150 152 156 158 160 161 161 159 157 155 154 154 153 150 142 135 131 126 123 122 121 119 117 114 108 101
77 94 151 215 235 242 230 210 233 262 264 286 257 251 278 28 125 141 146 148 145 142 141 150 154 157 162 166 166 166 165 163 161 160 158 157 153 146 143 143 138 134 130 127 126 122 115 107 100
132 139 185 203 229 246 234 186 203 234 258 244 207 223 280 163 154 146 145 140 139 140 141 147 152 157 163 166 167 168 166 165 165 165 162 158 155 153 152 151 148 144 139 131 128 121 112 104 97
149 141 184 204 208 239 216 185 207 200 240 223 174 189 236 188 154 143 138 139 144 146 151 151 150 152 157 163 167 167 165 165 167 165 156 152 153 158 158 156 153 147 140 133 128 120 107 95 92
113 131 201 202 192 226 212 197 225 215 233 231 202 219 249 142 149 146 146 154 164 169 169 163 158 156 155 159 169 166 166 168 168 162 154 146 143 148 154 153 152 148 144 140 133 119 103 89 86
147 194 214 204 191 187 192 196 252 337 282 272 260 337 119 149 163 166 169 173 179 184 184 176 169 165 160 168 161 158 160 163 156 149 148 139 137 142 141 156 155 146 136 133 128 112 99 89 78
178 204 208 235 218 188 186 294 317 249 256 226 242 286 157 168 175 181 183 183 185 185 188 186 179 173 170 167 160 159 155 154 153 155 152 144 139 137 131 128 128 121 112 95 93 86 85 92 99
185 223 210 226 234 191 214 284 295 218 231 212 256 240 172 182 187 191 191 191 187 188 194 191 186 182 181 173 170 166 165 164 165 166 160 151 151 153 150 147 141 126 115 116 100 99 97 95 100
202 227 215 241 274 265 235 236 252 253 252 283 333 114 169 194 203 206 202 199 196 198 198 197 192 191 186 180 180 180 180 178 174 171 171 166 165 168 165 161 154 148 137 135 128 122 117 110 108
200 212 259 268 260 256 242 256 229 253 252 257 268 234 209 218 221 214 204 202 204 206 204 201 200 196 191 192 191 187 187 184 180 181 181 178 175 173 171 170 168 165 157 148 141 139 130 119 116
157 175 257 250 223 232 232 266 230 238 243 255 257 256 252 241 230 225 218 210 209 209 206 204 204 199 198 198 198 194 192 190 193 192 187 186 183 180 178 177 178 174 157 144 129 122 114 115 111
136 158 222 251 202 204 193 259 253 238 226 248 254 254 254 252 237 237 231 222 216 210 208 208 204 202 203 203 201 200 195 196 199 194 192 193 191 185 181 183 186 169 154 148 143 136 119 122 127
155 183 202 251 206 196 204 254 261 258 226 252 260 257 256 263 256 242 237 231 222 212 209 207 206 203 204 205 203 202 196 201 201 197 199 198 196 190 187 189 182 164 157 158 156 141 137 145 143
177 167 178 212 272 225 239 262 278 276 246 254 264 264 256 254 257 249 234 231 231 222 215 212 209 209 204 201 200 199 203 207 203 204 205 198 197 192 189 186 176 166 162 164 159 143 121 130 139
151 154 178 219 280 283 260 270 274 270 256 255 260 262 260 256 256 256 247 239 233 229 220 215 212 211 199 195 201 204 211 210 209 209 205 201 196 191 189 186 177 176 178 177 162 140 134 129 139
134 139 167 281 342 325 295 278 269 257 243 238 248 259 262 267 276 265 252 236 225 225 224 222 219 214 205 205 205 204 204 210 211 208 205 202 197 192 191 187 184 182 176 170 170 152 141 139 164
168 162 168 188 353 26 334 298 289 294 290 289 274 269 276 266 272 279 273 254 235 231 228 227 225 221 215 211 202 186 177 178 189 205 210 206 199 195 194 191 185 184 181 182 181 171 156 152 167
193 173 154 139 69 322 13 307 295 309 332 335 324 320 302 290 285 289 295 290 266 251 245 236 233 229 224 212 202 199 204 210 210 209 210 204 198 196 194 189 185 184 185 183 183 175 163 145 155
140 118 114 110 119 329 302 237 284 326 338 341 339 338 330 320 315 316 309 295 290 285 273 257 250 242 233 219 213 212 217 220 214 202 199 199 197 195 191 187 185 185 185 182 176 170 167 158 156
119 87 70 59 78 260 219 192 278 267 231 307 332 345 353 359 2 359 356 356 347 340 331 314 291 270 247 229 222 220 222 219 207 200 201 199 193 192 191 186 186 184 180 177 175 171 170 163 152
124 115 92 26 0 248 194 207 253 263 258 253 296 335 350 5 13 11 8 3 356 351 344 339 324 300 280 251 236 228 228 222 216 209 206 198 192 196 196 187 185 180 173 166 160 160 161 152 146
158 144 158 183 213 269 195 235 256 274 292 239 240 331 1 10 9 6 358 353 347 344 343 338 326 308 295 270 252 241 231 225 224 216 207 203 203 199 186 182 175 163 156 155 149 144 140 134 131
133 140 143 123 109 280 259 272 300 293 70 63 21 6 4 358 356 352 347 347 342 339 335 329 319 309 300 286 268 253 237 227 223 214 203 195 183 163 159 158 154 149 146 144 140 134 131 126 120
133 140 116 126 155 260 289 266 239 198 173 360 360 353 341 343 345 344 343 340 335 331 326 327 319 306 300 294 281 269 247 229 216 193 181 169 155 146 146 146 143 140 137 135 128 124 123 119 115
125 114 109 108 143 166 276 280 222 190 179 288 321 319 318 325 329 332 332 329 325 327 330 330 328 321 315 310 303 285 255 214 187 174 166 154 143 143 146 143 138 135 132 129 123 122 120 115 111
146 154 143 147 189 170 204 271 289 194 198 287 304 309 315 320 321 323 325 327 330 331 331 332 331 326 320 317 315 305 258 155 150 146 140 136 136 135 134 132 130 128 126 123 122 122 118 119 120